Tracking 35051 objects as of 17-Aug-2026
HD Live streaming from Space Station
objects crossing your sky now

SALYUT 7 DEB


SALYUT 7 DEB is no longer on orbit


NORAD ID: 16242
Int'l Code: 1982-033GH
Launch date: April 19, 1982
Source: Commonwealth of Independent States (former USSR) (CIS)
Launch site: TYURATAM MISSILE AND SPACE COMPLEX (TTMTR)
Decay date: 1986-04-09

Note: This is SATELLITE DEBRIS
Your satellite tracking list
Your tracking list is empty




NASA's NSSDC Master Catalog

Two Line Element Set (TLE):
1 16242U 82033GH  86098.85789281  .06924775 +54888-4 +79277-3 0  9992
2 16242 051.6206 221.5619 0012428 305.1344 056.4313 16.35788867228979
Source of the keplerian elements: AFSPC